Montpelier, VT

12:49 PM EST on December 05, 2019 (GMT -0500)
Knapp State

Weather History for KMPV - July, 2019

Change the Weather History Date:

Tuesday, July 23, 2019

  Actual Average Record
Temperature  
Mean Temperature 67 °F 67 °F  
Max Temperature 75 °F 79 °F 92 °F (1952)
Min Temperature 58 °F 56 °F 41 °F (1981)
Degree Days  
Heating Degree Days 0 1  
Month to date heating degree days 8 29  
Since 1 June heating degree days 152 150  
Since 1 July heating degree days 8 29  
Cooling Degree Days 2 3  
Month to date cooling degree days 98 73  
Year to date cooling degree days 118 136  
Since 1 June cooling degree days 117 126  
Growing Degree Days 17 (Base 50)    
Moisture  
Dew Point 59 °F    
Average Humidity 73    
Maximum Humidity 100    
Minimum Humidity 46    
Precipitation  
Precipitation 0.06 in 0.15 in 1.57 in (1948)
Month to date precipitation 2.80 2.92  
Year to date precipitation 27.73 19.63  
Sea Level Pressure  
Sea Level Pressure 29.91 in    
Wind  
Wind Speed 2 mph (NW)    
Max Wind Speed 12 mph    
Max Gust Speed 16 mph    
Visibility 8 miles    
Events Rain    
T = Trace of Precipitation, MM = Missing Value Source: NWS Daily Summary

Daily Weather History Graph

Daily Weather History Graph

Search for Another Location

Airport or City:

Astronomy

Jul. 23, 2019 Rise Set
Actual Time 5:28 AM EDT 8:24 PM EDT
Civil Twilight 4:53 AM EDT 8:58 PM EDT
Nautical Twilight 4:10 AM EDT 9:42 PM EDT
Astronomical Twilight 3:18 AM EDT 10:33 PM EDT
Moon 11:56 PM EDT (7/23) 11:51 AM EDT (7/23)
Length of Visible Light 16h 05m
Length of Day
14h 56m
Waning Gibbous, 63% of the Moon is Illuminated
Jul 23
Waning Gibbous
Jul 24
Last Quarter
Jul 31
New
Aug 7
First Quarter
Aug 15
Full

Hourly Weather History & Observations

Time (EDT) Temp. Dew Point Humidity Pressure Visibility Wind Dir Wind Speed Gust Speed Precip Events Conditions
12:33 AM 61.0 °F 61.0 °F 100% 29.91 in 10.0 mi Calm Calm - 0.01 in   Overcast
12:41 AM 62.1 °F 61.0 °F 96% 29.90 in 10.0 mi Calm Calm - 0.01 in   Overcast
12:49 AM 60.8 °F 60.8 °F 100% 29.90 in 10.0 mi Calm Calm - 0.01 in   Overcast
12:51 AM 61.0 °F 61.0 °F 100% 29.90 in 10.0 mi Calm Calm - 0.01 in   Overcast
1:10 AM 61.0 °F 61.0 °F 100% 29.89 in 9.0 mi Calm Calm - N/A   Overcast
1:51 AM 61.0 °F 61.0 °F 100% 29.89 in 8.0 mi NW 3.5 mph - N/A   Overcast
2:00 AM 61.0 °F 61.0 °F 100% 29.89 in 5.0 mi Calm Calm - 0.00 in Rain Light Rain
2:32 AM 61.0 °F 60.1 °F 97% 29.89 in 10.0 mi Calm Calm - 0.00 in   Overcast
2:51 AM 61.0 °F 61.0 °F 100% 29.88 in 10.0 mi Calm Calm - 0.00 in Rain Light Rain
3:02 AM 61.0 °F 61.0 °F 100% 29.89 in 8.0 mi Calm Calm - 0.01 in Rain Light Rain
3:42 AM 60.1 °F 60.1 °F 100% 29.87 in 7.0 mi Calm Calm - 0.03 in Rain Light Rain
3:51 AM 60.1 °F 60.1 °F 100% 29.87 in 5.0 mi Calm Calm - 0.03 in Rain Light Rain
3:56 AM 60.1 °F 60.1 °F 100% 29.87 in 2.5 mi Calm Calm - 0.00 in Rain Light Rain
4:03 AM 60.1 °F 60.1 °F 100% 29.88 in 1.2 mi Calm Calm - 0.01 in Rain Light Rain
4:11 AM 60.1 °F 60.1 °F 100% 29.88 in 1.0 mi Calm Calm - 0.01 in Rain Light Rain
4:15 AM 60.1 °F 60.1 °F 100% 29.88 in 1.5 mi Calm Calm - 0.01 in Rain Light Rain
4:20 AM 60.1 °F 60.1 °F 100% 29.88 in 3.0 mi North 3.5 mph - 0.01 in Rain Light Rain
4:51 AM 60.1 °F 60.1 °F 100% 29.88 in 8.0 mi NNW 3.5 mph - 0.01 in Rain Light Rain
5:23 AM 60.1 °F 60.1 °F 100% 29.89 in 7.0 mi Calm Calm - 0.00 in   Overcast
5:38 AM 60.1 °F 60.1 °F 100% 29.89 in 6.0 mi NW 3.5 mph - 0.00 in Rain Light Rain
5:51 AM 60.1 °F 60.1 °F 100% 29.89 in 7.0 mi Calm Calm - 0.01 in Rain Light Rain
5:59 AM 60.1 °F 60.1 °F 100% 29.90 in 8.0 mi Calm Calm - 0.00 in Rain Light Rain
6:46 AM 60.8 °F 60.8 °F 100% 29.90 in 9.0 mi Calm Calm - 0.01 in Rain Light Rain
6:51 AM 60.1 °F 60.1 °F 100% 29.91 in 10.0 mi Calm Calm - 0.01 in Rain Light Rain
7:12 AM 60.1 °F 60.1 °F 100% 29.91 in 10.0 mi Calm Calm - 0.00 in Rain Light Rain
7:51 AM 61.0 °F 60.1 °F 97% 29.92 in 10.0 mi Calm Calm - 0.00 in   Overcast
8:25 AM 62.1 °F 60.1 °F 93% 29.91 in 10.0 mi Calm Calm - N/A   Mostly Cloudy
8:47 AM 62.6 °F 59.0 °F 88% 29.92 in 10.0 mi Calm Calm - N/A   Mostly Cloudy
8:51 AM 62.1 °F 59.0 °F 90% 29.92 in 10.0 mi Calm Calm - N/A   Mostly Cloudy
9:00 AM 62.1 °F 60.1 °F 93% 29.93 in 10.0 mi Calm Calm - N/A   Mostly Cloudy
9:51 AM 61.0 °F 60.1 °F 97% 29.92 in 10.0 mi Calm Calm - N/A   Mostly Cloudy
10:00 AM 62.1 °F 60.1 °F 93% 29.92 in 10.0 mi Calm Calm - N/A   Mostly Cloudy
10:09 AM 62.1 °F 60.1 °F 93% 29.92 in 10.0 mi Variable 3.5 mph - N/A   Scattered Clouds
10:51 AM 64.0 °F 57.0 °F 78% 29.91 in 10.0 mi NW 3.5 mph - N/A   Scattered Clouds
11:51 AM 66.9 °F 55.9 °F 68% 29.91 in 10.0 mi Calm Calm - N/A   Partly Cloudy
12:51 PM 70.0 °F 55.9 °F 61% 29.91 in 10.0 mi Variable 6.9 mph - N/A   Partly Cloudy
1:51 PM 71.1 °F 55.0 °F 57% 29.90 in 10.0 mi Calm Calm - N/A   Partly Cloudy
2:51 PM 73.0 °F 55.0 °F 53% 29.90 in 10.0 mi Variable 3.5 mph - N/A   Partly Cloudy
3:51 PM 75.0 °F 55.9 °F 51% 29.88 in 10.0 mi North 5.8 mph - N/A   Scattered Clouds
4:51 PM 73.9 °F 52.0 °F 46% 29.89 in 10.0 mi NNW 5.8 mph - N/A   Clear
5:51 PM 72.0 °F 54.0 °F 53% 29.91 in 10.0 mi WNW 4.6 mph - N/A   Scattered Clouds
6:51 PM 69.1 °F 55.0 °F 61% 29.93 in 10.0 mi NW 8.1 mph - N/A   Overcast
7:51 PM 66.0 °F 57.9 °F 75% 29.95 in 10.0 mi West 3.5 mph - N/A   Scattered Clouds
8:51 PM 63.0 °F 57.0 °F 81% 29.96 in 10.0 mi Calm Calm - N/A   Clear
9:51 PM 60.1 °F 55.0 °F 83% 29.97 in 10.0 mi Calm Calm - N/A   Partly Cloudy
10:51 PM 59.0 °F 55.9 °F 90% 29.98 in 10.0 mi Calm Calm - N/A   Overcast
11:51 PM 57.9 °F 55.0 °F 90% 29.99 in 10.0 mi South 3.5 mph - N/A   Scattered Clouds